FW2272 Weather Reports


Display with metric or nautical units.
time (UTC)temp
F
wind
direction
speed
MPH
gust
MPH
rain 1hr
in
rain 24hr
in
rain mn
in
humidity
%
barometer
mb
20220525205213 81 270 5.0 0.0 0.00 0.67 0.26 33 1013.5
20220525204713 80 295 7.0 0.0 0.00 0.67 0.26 36 1013.5
20220525204314 81 307 6.0 0.0 0.00 0.67 0.26 35 1013.5
20220525203715 81 320 6.0 0.0 0.00 0.67 0.26 34 1013.9
20220525203342 80 17 6.0 0.0 0.00 0.67 0.26 37 1013.9
20220525202713 80 289 8.0 0.0 0.00 0.67 0.26 35 1013.9
20220525202318 80 28 8.0 0.0 0.00 0.67 0.26 37 1013.9
20220525201916 82 180 7.0 0.0 0.00 0.67 0.26 35 1013.9
20220525201215 82 61 6.0 0.0 0.00 0.67 0.26 34 1014.2
20220525200711 82 274 8.0 0.0 0.00 0.67 0.26 32 1014.2
20220525200215 81 292 6.0 0.0 0.00 0.67 0.26 37 1014.2
20220525195715 81 333 7.0 0.0 0.00 0.67 0.26 34 1014.2
20220525195212 80 305 7.0 0.0 0.00 0.67 0.26 36 1014.6
20220525194713 82 286 8.0 0.0 0.00 0.67 0.26 33 1014.2
20220525194214 82 266 6.0 0.0 0.00 0.67 0.26 33 1014.6
20220525193715 81 279 6.0 0.0 0.00 0.67 0.26 35 1014.2
20220525193213 81 301 8.0 0.0 0.00 0.67 0.26 35 1014.6
20220525192711 81 273 8.0 0.0 0.00 0.67 0.26 34 1014.2
20220525192211 80 292 10.0 0.0 0.00 0.67 0.26 35 1014.6
20220525191716 80 312 11.0 0.0 0.00 0.67 0.26 37 1014.6
20220525191211 80 313 10.0 0.0 0.00 0.67 0.26 36 1014.2
20220525190714 80 294 10.0 0.0 0.00 0.67 0.26 38 1014.6
20220525190213 80 193 8.0 0.0 0.00 0.67 0.26 39 1014.2
20220525185714 79 288 9.0 0.0 0.00 0.67 0.26 42 1014.6
20220525185212 80 269 8.0 0.0 0.00 0.67 0.26 39 1014.6
20220525184947 80 322 8.0 0.0 0.00 0.67 0.26 41 1014.6
20220525184212 79 291 7.0 0.0 0.00 0.67 0.26 39 1014.6
20220525183713 79 301 6.0 0.0 0.00 0.67 0.26 42 1014.6
20220525183534 79 357 7.0 0.0 0.00 0.67 0.26 44 1014.6
20220525182743 78 288 8.0 0.0 0.00 0.67 0.26 41 1014.6
20220525182213 78 301 10.0 0.0 0.00 0.67 0.26 41 1014.6
20220525181714 79 312 12.0 0.0 0.00 0.67 0.26 39 1014.6
20220525181215 79 315 9.0 0.0 0.00 0.67 0.26 43 1014.6
20220525180818 78 305 7.0 0.0 0.00 0.67 0.26 41 1014.6
20220525180223 78 330 7.0 0.0 0.00 0.67 0.26 43 1014.6
20220525175714 77 283 5.0 0.0 0.00 0.67 0.26 45 1014.6
20220525175317 77 242 6.0 0.0 0.00 0.67 0.26 45 1014.6
20220525174713 76 242 7.0 0.0 0.00 0.67 0.26 46 1014.6
20220525174247 77 251 7.0 0.0 0.00 0.67 0.26 46 1014.2
20220525173720 76 296 6.0 0.0 0.00 0.67 0.26 46 1014.6
20220525173314 76 296 6.0 0.0 0.00 0.67 0.26 46 1014.6
20220525172714 76 333 5.0 0.0 0.00 0.67 0.26 49 1014.6
20220525172317 76 316 8.0 0.0 0.00 0.67 0.26 48 1014.6
20220525171726 75 259 9.0 0.0 0.00 0.67 0.26 48 1014.2
20220525171350 75 278 11.0 0.0 0.00 0.67 0.26 51 1014.2
20220525170711 74 245 10.0 0.0 0.00 0.67 0.26 52 1014.2
20220525170247 74 258 10.0 0.0 0.00 0.67 0.26 49 1014.2
20220525165714 74 315 7.0 0.0 0.00 0.67 0.26 53 1014.2
20220525165217 74 359 9.0 0.0 0.00 0.67 0.26 53 1014.2
20220525164715 74 318 6.0 0.0 0.00 0.67 0.26 53 1013.9
20220525164215 73 235 8.0 0.0 0.00 0.67 0.26 53 1013.9
20220525163710 73 287 6.0 0.0 0.00 0.67 0.26 58 1013.9
20220525163216 73 327 8.0 0.0 0.00 0.67 0.26 56 1013.9
20220525162712 72 320 7.0 0.0 0.00 0.67 0.26 56 1013.9
20220525162213 72 312 8.0 0.0 0.00 0.67 0.26 56 1014.2
20220525161715 72 326 9.0 0.0 0.00 0.67 0.26 60 1013.9
20220525161215 71 266 8.0 0.0 0.00 0.67 0.26 63 1013.9
20220525160714 70 290 6.0 0.0 0.00 0.67 0.26 62 1014.2
20220525160217 70 257 9.0 0.0 0.00 0.67 0.26 61 1014.2
20220525155712 70 283 11.0 0.0 0.00 0.67 0.26 62 1014.2
20220525155514 70 325 7.0 0.0 0.00 0.67 0.26 65 1014.2
20220525155013 70 245 8.0 0.0 0.00 0.67 0.26 61 1014.2
20220525154213 69 286 11.0 0.0 0.00 0.67 0.26 63 1014.2
20220525153715 70 335 6.0 0.0 0.00 0.67 0.26 65 1014.2
20220525153212 69 233 6.0 0.0 0.00 0.67 0.26 67 1014.2
20220525152714 69 319 7.0 0.0 0.00 0.67 0.26 65 1014.2
20220525152212 69 254 7.0 0.0 0.00 0.67 0.26 67 1014.2
20220525151712 68 55 6.0 0.0 0.00 0.67 0.26 71 1014.2
20220525151243 67 316 8.0 0.0 0.00 0.67 0.26 70 1014.2
20220525150711 67 327 6.0 0.0 0.00 0.67 0.26 71 1014.2
20220525150244 67 333 7.0 0.0 0.00 0.67 0.26 71 1014.2
20220525145715 67 293 10.0 0.0 0.00 0.67 0.26 72 1014.2
20220525145215 66 297 7.0 0.0 0.00 0.67 0.26 74 1014.2
20220525144712 66 276 8.0 0.0 0.00 0.67 0.26 73 1014.2
20220525144320 65 288 7.0 0.0 0.00 0.67 0.26 75 1014.2
20220525143814 65 303 4.0 0.0 0.00 0.67 0.26 75 1014.2
20220525143210 65 325 6.0 0.0 0.00 0.67 0.26 78 1014.2
20220525142713 64 307 8.0 0.0 0.00 0.67 0.26 77 1014.2
20220525142215 64 270 7.0 0.0 0.00 0.67 0.26 76 1014.2
20220525141716 64 337 8.0 0.0 0.00 0.67 0.26 79 1014.2
20220525141228 64 301 9.0 0.0 0.00 0.67 0.26 78 1013.9
20220525140714 63 307 5.0 0.0 0.00 0.67 0.26 81 1013.9
20220525140212 63 330 8.0 0.0 0.00 0.67 0.26 80 1013.9
20220525135713 63 298 9.0 0.0 0.00 0.67 0.26 80 1013.9
20220525135214 63 295 8.0 0.0 0.00 0.67 0.26 81 1013.9
20220525134714 63 300 8.0 0.0 0.00 0.67 0.26 83 1013.9
20220525134214 63 95 5.0 0.0 0.00 0.67 0.26 86 1013.5
20220525133744 62 344 6.0 0.0 0.00 0.67 0.26 84 1013.5
20220525133210 62 302 8.0 0.0 0.00 0.67 0.26 85 1013.5
20220525132713 62 52 6.0 0.0 0.00 0.67 0.26 86 1013.5
20220525132216 62 306 7.0 0.0 0.00 0.67 0.26 88 1013.5
20220525131714 61 325 8.0 0.0 0.00 0.67 0.26 88 1013.5
20220525131211 61 266 10.0 0.0 0.00 0.67 0.26 88 1013.5
20220525130711 61 283 6.0 0.0 0.00 0.67 0.26 89 1013.5
20220525130246 61 287 6.0 0.0 0.00 0.67 0.26 89 1013.2
20220525125713 61 355 5.0 0.0 0.00 0.67 0.26 90 1013.2
20220525125213 61 275 8.0 0.0 0.00 0.67 0.26 90 1013.2
20220525124714 61 312 5.0 0.0 0.00 0.67 0.26 91 1012.9
20220525124217 61 301 5.0 0.0 0.00 0.67 0.26 91 1012.9
20220525123714 61 294 6.0 0.0 0.00 0.67 0.26 91 1012.9
20220525123214 61 326 6.0 0.0 0.00 0.67 0.26 92 1012.9
20220525122712 61 307 4.0 0.0 0.00 0.67 0.26 93 1012.9
20220525122218 61 287 6.0 0.0 0.00 0.67 0.26 93 1012.9
20220525121714 61 310 6.0 0.0 0.00 0.67 0.26 95 1012.9
20220525121216 61 318 5.0 0.0 0.00 0.67 0.26 96 1012.9
20220525120716 61 55 0.0 0.0 0.00 0.67 0.26 96 1012.5
20220525120215 61 333 2.0 0.0 0.00 0.67 0.26 96 1012.2
20220525115714 61 322 2.0 0.0 0.00 0.67 0.26 96 1012.5
20220525115222 61 67 0.0 0.0 0.00 0.67 0.26 96 1012.2
20220525114713 61 324 0.0 0.0 0.00 0.67 0.26 96 1012.2
20220525114214 61 292 0.0 0.0 0.00 0.67 0.26 96 1012.2
20220525113714 61 58 0.0 0.0 0.00 0.67 0.26 96 1012.2
20220525113211 61 41 0.0 0.0 0.00 0.67 0.26 96 1012.2
20220525112721 61 349 0.0 0.0 0.00 0.67 0.26 96 1012.2
20220525112215 61 38 0.0 0.0 0.00 0.67 0.26 96 1012.2
20220525111717 61 339 0.0 0.0 0.00 0.67 0.26 96 1012.2
20220525111212 61 337 0.0 0.0 0.00 0.67 0.26 96 1012.2
20220525110715 62 331 0.0 0.0 0.00 0.67 0.26 96 1012.2
20220525110213 62 15 0.0 0.0 0.00 0.67 0.26 96 1012.2
20220525105817 62 335 1.0 0.0 0.00 0.67 0.26 96 1012.2
20220525105212 62 11 0.0 0.0 0.00 0.67 0.26 96 1012.2
20220525104713 62 62 0.0 0.0 0.00 0.67 0.26 95 1012.2
20220525104212 62 75 0.0 0.0 0.00 0.67 0.26 95 1012.2
20220525103712 62 75 0.0 0.0 0.00 0.67 0.26 95 1012.2
20220525103212 62 32 0.0 0.0 0.00 0.67 0.26 95 1012.2
20220525102714 62 18 0.0 0.0 0.00 0.67 0.26 95 1012.2
20220525102218 62 352 0.0 0.0 0.00 0.67 0.26 95 1012.2
20220525101714 62 51 0.0 0.0 0.00 0.67 0.26 95 1011.9
20220525101212 62 50 0.0 0.0 0.00 0.67 0.26 95 1011.9
20220525100713 63 25 1.0 0.0 0.00 0.67 0.26 95 1011.9
20220525100212 62 312 2.0 0.0 0.00 0.67 0.26 95 1011.5
20220525095713 62 358 3.0 0.0 0.00 0.67 0.26 95 1011.5
20220525095412 62 339 3.0 0.0 0.00 0.67 0.26 96 1011.5
20220525094714 62 269 4.0 0.0 0.00 0.67 0.26 96 1011.5
20220525094213 62 286 2.0 0.0 0.00 0.67 0.26 96 1011.2
20220525093745 62 340 0.0 0.0 0.00 0.67 0.26 96 1011.2
20220525093211 62 5 0.0 0.0 0.00 0.67 0.26 96 1010.8
20220525092713 63 58 2.0 0.0 0.00 0.67 0.26 96 1010.5
20220525092214 62 321 3.0 0.0 0.00 0.67 0.26 96 1010.2
20220525091746 62 13 0.0 0.0 0.00 0.67 0.26 95 1010.2
20220525091215 62 32 0.0 0.0 0.00 0.67 0.26 95 1009.8
20220525090711 62 2 0.0 0.0 0.00 0.67 0.26 95 1009.8
20220525090316 62 348 0.0 0.0 0.00 0.67 0.26 95 1009.8
20220525085816 62 59 2.0 0.0 0.00 0.67 0.26 95 1009.5
20220525085210 62 67 1.0 0.0 0.00 0.67 0.26 95 1009.8
20220525084710 62 73 2.0 0.0 0.00 0.67 0.26 95 1009.8
20220525084213 63 28 2.0 0.0 0.00 0.67 0.26 95 1009.8
20220525083709 62 18 3.0 0.0 0.00 0.67 0.26 95 1010.2
20220525083214 62 87 2.0 0.0 0.00 0.67 0.26 95 1010.5
20220525082743 62 80 2.0 0.0 0.00 0.67 0.26 94 1010.5
20220525082211 63 35 3.0 0.0 0.00 0.67 0.26 94 1010.8
20220525081714 63 106 2.0 0.0 0.00 0.67 0.26 94 1010.5
20220525081213 63 356 3.0 0.0 0.00 0.67 0.26 93 1010.2
20220525080716 63 346 3.0 0.0 0.00 0.67 0.26 93 1010.8
20220525080244 63 42 3.0 0.0 0.00 0.67 0.26 92 1010.2
20220525075713 63 62 3.0 0.0 0.00 0.67 0.26 92 1009.8
20220525075213 63 95 3.0 0.0 0.01 0.67 0.26 91 1009.8
20220525075014 63 11 5.0 0.0 0.01 0.67 0.26 90 1010.2
20220525074318 63 111 6.0 0.0 0.02 0.67 0.26 89 1009.1
20220525073714 63 329 5.0 0.0 0.02 0.67 0.26 91 1009.5
20220525073211 63 111 5.0 0.0 0.02 0.67 0.26 91 1007.5
20220525072817 63 43 1.0 0.0 0.02 0.67 0.26 90 1007.5
20220525072214 63 67 4.0 0.0 0.03 0.67 0.26 90 1007.5
20220525071711 63 63 8.0 0.0 0.04 0.67 0.26 88 1007.5
20220525071212 63 318 11.0 0.0 0.05 0.67 0.26 91 1007.8
20220525070711 63 36 5.0 0.0 0.06 0.67 0.26 92 1008.1
20220525070218 63 51 4.0 0.0 0.06 0.67 0.26 91 1008.5
20220525065714 63 300 3.0 0.0 0.07 0.67 0.26 92 1008.8
20220525065213 63 342 5.0 0.0 0.07 0.66 0.25 92 1009.5
20220525064712 63 48 6.0 0.0 0.07 0.66 0.25 92 1010.2
20220525064242 63 278 6.0 0.0 0.06 0.65 0.24 92 1010.2
20220525063713 63 345 3.0 0.0 0.07 0.65 0.24 93 1010.5
20220525063215 62 305 5.0 0.0 0.08 0.65 0.24 93 1010.8
20220525062814 63 320 3.0 0.0 0.10 0.65 0.24 93 1011.2
20220525062210 63 31 4.0 0.0 0.11 0.64 0.23 93 1011.2
20220525061711 63 23 4.0 0.0 0.12 0.63 0.22 94 1011.5
20220525061214 63 298 5.0 0.0 0.15 0.62 0.21 94 1011.9
20220525060711 63 334 5.0 0.0 0.17 0.61 0.20 94 1012.2
20220525060213 63 296 3.0 0.0 0.19 0.61 0.20 94 1012.9
20220525055714 63 313 4.0 0.0 0.19 0.60 0.19 94 1013.5
20220525055343 63 27 6.0 0.0 0.41 0.59 0.18 94 1013.5
20220525054744 63 331 4.0 0.0 0.55 0.59 0.18 94 1012.9
20220525054210 63 318 6.0 0.0 0.55 0.59 0.18 94 1013.2
20220525053714 63 253 14.0 0.0 0.58 0.58 0.17 95 1012.5
20220525053318 63 295 10.0 0.0 0.57 0.57 0.16 95 1012.2
20220525052713 63 357 9.0 0.0 0.55 0.55 0.14 95 1012.5
20220525052215 63 306 8.0 0.0 0.53 0.53 0.12 95 1013.5
20220525051714 63 277 7.0 0.0 0.51 0.51 0.10 95 1012.9
20220525051212 63 330 9.0 0.0 0.47 0.47 0.06 94 1013.2
20220525050915 63 319 11.0 0.0 0.44 0.44 0.03 94 1013.2
20220525050213 62 256 13.0 0.0 0.42 0.42 0.01 93 1012.2
20220525045716 62 286 14.0 0.0 0.41 0.41 0.41 93 1011.5
20220525045214 63 281 17.0 0.0 0.33 0.33 0.33 91 1012.2
20220525044814 65 333 11.0 0.0 0.18 0.18 0.18 87 1013.2
20220525044214 69 306 10.0 0.0 0.04 0.04 0.04 76 1012.5
20220525043714 72 215 15.0 0.0 0.00 0.00 0.00 62 1011.2
20220525043214 73 293 8.0 0.0 0.00 0.00 0.00 57 1010.5
20220525042710 74 293 7.0 0.0 0.00 0.00 0.00 56 1010.2
20220525042213 75 317 10.0 0.0 0.00 0.00 0.00 56 1009.8
20220525041712 80 278 15.0 0.0 0.00 0.00 0.00 56 1009.1
20220525041213 80 336 3.0 0.0 0.00 0.00 0.00 66 1008.8
20220525040714 80 317 3.0 0.0 0.00 0.00 0.00 66 1008.5
20220525040314 80 35 5.0 0.0 0.00 0.00 0.00 65 1008.1
20220525035713 80 322 4.0 0.0 0.00 0.00 0.00 65 1007.8
20220525035210 81 126 6.0 0.0 0.00 0.00 0.00 64 1007.5
20220525034712 81 88 6.0 0.0 0.00 0.00 0.00 64 1007.1
20220525034213 81 19 6.0 0.0 0.00 0.00 0.00 63 1006.8
20220525033713 81 40 7.0 0.0 0.00 0.00 0.00 63 1007.1
20220525033213 81 31 5.0 0.0 0.00 0.00 0.00 64 1006.8
20220525032713 81 99 3.0 0.0 0.00 0.00 0.00 63 1006.4
20220525032215 81 70 5.0 0.0 0.00 0.00 0.00 63 1006.4
20220525031730 81 31 3.0 0.0 0.00 0.00 0.00 62 1006.1
20220525031214 81 92 6.0 0.0 0.00 0.00 0.00 61 1006.1
20220525030710 81 39 3.0 0.0 0.00 0.00 0.00 60 1006.1
20220525030214 81 28 3.0 0.0 0.00 0.00 0.00 60 1006.1
20220525025814 81 43 5.0 0.0 0.00 0.00 0.00 60 1006.1
20220525025211 81 146 6.0 0.0 0.00 0.00 0.00 59 1005.4
20220525024715 81 30 4.0 0.0 0.00 0.00 0.00 59 1005.8
20220525024245 81 92 6.0 0.0 0.00 0.00 0.00 58 1005.4
20220525023816 82 48 6.0 0.0 0.00 0.00 0.00 58 1005.8
20220525023214 82 61 8.0 0.0 0.00 0.00 0.00 58 1005.8
20220525022715 82 86 3.0 0.0 0.00 0.00 0.00 58 1005.4
20220525022211 82 34 4.0 0.0 0.00 0.00 0.00 57 1005.4
20220525021711 82 78 4.0 0.0 0.00 0.00 0.00 57 1005.8
20220525021213 82 105 3.0 0.0 0.00 0.00 0.00 56 1005.8
20220525020715 82 113 4.0 0.0 0.00 0.00 0.00 55 1005.8
20220525020214 82 60 3.0 0.0 0.00 0.00 0.00 55 1005.8
20220525015819 82 150 4.0 0.0 0.00 0.00 0.00 54 1005.8
20220525015211 83 129 5.0 0.0 0.00 0.00 0.00 54 1006.1
20220525014815 83 9 4.0 0.0 0.00 0.00 0.00 53 1006.1
20220525014218 83 281 6.0 0.0 0.00 0.00 0.00 54 1006.1
20220525013715 83 40 7.0 0.0 0.00 0.00 0.00 54 1006.1
20220525013215 83 80 4.0 0.0 0.00 0.00 0.00 54 1006.4
20220525012711 83 22 4.0 0.0 0.00 0.00 0.00 55 1006.1
20220525012314 83 21 6.0 0.0 0.00 0.00 0.00 55 1005.8
20220525011712 83 45 3.0 0.0 0.00 0.00 0.00 55 1005.8
20220525011215 83 91 4.0 0.0 0.00 0.00 0.00 55 1005.8
20220525010714 83 116 5.0 0.0 0.00 0.00 0.00 54 1005.4
20220525010214 83 5 3.0 0.0 0.00 0.00 0.00 55 1005.1
20220525005710 83 51 4.0 0.0 0.00 0.00 0.00 54 1005.1
20220525005220 83 128 5.0 0.0 0.00 0.00 0.00 54 1005.1
20220525004715 83 105 5.0 0.0 0.00 0.00 0.00 54 1005.1
20220525004215 83 83 4.0 0.0 0.00 0.00 0.00 54 1005.1
20220525003714 83 26 6.0 0.0 0.00 0.00 0.00 54 1005.1
20220525003212 83 27 3.0 0.0 0.00 0.00 0.00 55 1005.4
20220525002812 83 24 3.0 0.0 0.00 0.00 0.00 55 1005.4
20220525002212 83 86 5.0 0.0 0.00 0.00 0.00 55 1005.4
20220525001713 83 248 7.0 0.0 0.00 0.00 0.00 55 1005.1
20220525001217 83 70 5.0 0.0 0.00 0.00 0.00 55 1005.4
20220525000712 83 59 6.0 0.0 0.00 0.00 0.00 55 1005.8
20220525000213 83 312 4.0 0.0 0.00 0.00 0.00 55 1005.8
20220524235712 84 42 6.0 0.0 0.00 0.00 0.00 55 1005.4
20220524235210 84 24 5.0 0.0 0.00 0.00 0.00 55 1005.4
20220524234714 84 19 6.0 0.0 0.00 0.00 0.00 55 1005.8
20220524234211 84 297 6.0 0.0 0.00 0.00 0.00 54 1005.8
20220524233714 84 74 4.0 0.0 0.00 0.00 0.00 54 1006.1
20220524233215 84 27 3.0 0.0 0.00 0.00 0.00 54 1005.8
20220524232713 84 82 5.0 0.0 0.00 0.00 0.00 54 1005.8
20220524232212 84 70 5.0 0.0 0.00 0.00 0.00 54 1005.8
20220524231712 84 60 6.0 0.0 0.00 0.00 0.00 54 1005.8
20220524231211 84 50 5.0 0.0 0.00 0.00 0.00 53 1006.1
20220524230746 84 95 5.0 0.0 0.00 0.00 0.00 54 1006.1
20220524230218 84 95 4.0 0.0 0.00 0.00 0.00 53 1006.4
20220524225715 84 306 6.0 0.0 0.00 0.00 0.00 53 1006.4
20220524225212 84 26 4.0 0.0 0.00 0.00 0.00 53 1006.4
20220524224713 84 107 5.0 0.0 0.00 0.00 0.00 52 1006.4
20220524224213 84 213 6.0 0.0 0.00 0.00 0.00 52 1006.4
20220524223713 84 48 4.0 0.0 0.00 0.00 0.00 51 1006.4
20220524223214 85 96 7.0 0.0 0.00 0.00 0.00 50 1006.4
20220524222711 85 97 4.0 0.0 0.00 0.00 0.00 49 1006.4
20220524222214 85 111 5.0 0.0 0.00 0.00 0.00 48 1006.4
20220524221714 85 108 4.0 0.0 0.00 0.00 0.00 48 1006.4
20220524221314 85 313 4.0 0.0 0.00 0.00 0.00 48 1006.4
20220524220714 85 53 3.0 0.0 0.00 0.00 0.00 47 1006.4
20220524220213 86 101 5.0 0.0 0.00 0.00 0.00 47 1006.8
20220524215714 86 32 5.0 0.0 0.00 0.00 0.00 47 1006.8
20220524215211 86 12 4.0 0.0 0.00 0.00 0.00 46 1006.8
20220524214714 87 33 5.0 0.0 0.00 0.00 0.00 45 1007.1
20220524214217 87 97 7.0 0.0 0.00 0.00 0.00 44 1007.1
20220524213712 87 338 8.0 0.0 0.00 0.01 0.00 45 1007.1
20220524213212 87 84 4.0 0.0 0.00 0.01 0.00 45 1007.1
20220524212812 87 56 5.0 0.0 0.00 0.01 0.00 45 1007.1
20220524212246 87 304 7.0 0.0 0.00 0.01 0.00 46 1007.1
20220524211742 87 40 6.0 0.0 0.00 0.01 0.00 46 1007.5
20220524211314 87 79 4.0 0.0 0.00 0.01 0.00 46 1007.8
20220524210711 87 51 5.0 0.0 0.00 0.01 0.00 45 1007.5
20220524210244 88 102 4.0 0.0 0.00 0.01 0.00 44 1007.8
20220524205715 88 29 6.0 0.0 0.00 0.01 0.00 43 1007.8